NKS221 KPIT-KSYR

Flight info

Callsign NKS221
Flight time N/A
Altitude 27000
Route EWC KONDO T608 WIFFY
Aircraft A319/M-SDE3FGHIRWY/LB1

Departure

Time N/A
Airport Pittsburgh International Airport (KPIT)

Arrival

Time 2026-04-29 17:22
Airport Syracuse Hancock International Airport (KSYR)
Time Latitude Longitude Altitude Speed Heading
2026-04-29 16:51 41.21541 -79.65748 22248 ft 488 kts 46°
2026-04-29 16:51 41.23826 -79.62472 22682 ft 490 kts 46°
2026-04-29 16:52 41.26143 -79.59147 23252 ft 490 kts 45°
2026-04-29 16:52 41.28451 -79.55825 23852 ft 489 kts 45°
2026-04-29 16:52 41.30728 -79.52550 24422 ft 489 kts 45°
2026-04-29 16:52 41.33035 -79.49223 24981 ft 488 kts 45°
2026-04-29 16:53 41.35330 -79.45914 25464 ft 490 kts 45°
2026-04-29 16:53 41.37652 -79.42561 25899 ft 493 kts 45°
2026-04-29 16:53 41.39971 -79.39212 26343 ft 495 kts 45°
2026-04-29 16:53 41.42303 -79.35834 26743 ft 497 kts 45°
2026-04-29 16:54 41.44631 -79.32465 26818 ft 500 kts 45°
2026-04-29 16:54 41.46996 -79.29034 26825 ft 499 kts 45°
2026-04-29 16:54 41.49343 -79.25629 26830 ft 499 kts 45°
2026-04-29 16:54 41.51681 -79.22235 26830 ft 500 kts 45°
2026-04-29 16:55 41.53399 -79.19735 26824 ft 499 kts 46°
2026-04-29 16:55 41.54493 -79.18142 26828 ft 499 kts 46°
2026-04-29 16:55 41.56849 -79.14710 26829 ft 499 kts 45°
2026-04-29 16:55 41.59181 -79.11307 26827 ft 499 kts 45°
2026-04-29 16:56 41.61518 -79.07894 26816 ft 499 kts 45°
2026-04-29 16:56 41.63863 -79.04468 26821 ft 498 kts 45°
2026-04-29 16:56 41.66195 -79.01054 26827 ft 497 kts 46°
2026-04-29 16:56 41.68498 -78.97682 26817 ft 498 kts 46°
2026-04-29 16:57 41.70818 -78.94276 26812 ft 497 kts 46°
2026-04-29 16:57 41.73167 -78.90827 26814 ft 498 kts 46°
2026-04-29 16:57 41.75484 -78.87421 26822 ft 497 kts 46°
2026-04-29 16:57 41.77793 -78.84021 26833 ft 497 kts 46°
2026-04-29 16:58 41.80114 -78.80598 26829 ft 497 kts 46°
2026-04-29 16:58 41.82431 -78.77177 26831 ft 496 kts 46°
2026-04-29 16:58 41.84759 -78.73740 26832 ft 497 kts 46°
2026-04-29 16:58 41.87062 -78.70335 26844 ft 497 kts 46°
2026-04-29 16:59 41.89377 -78.66908 26840 ft 497 kts 46°
2026-04-29 16:59 41.91683 -78.63485 26837 ft 497 kts 46°
2026-04-29 16:59 41.93998 -78.60049 26841 ft 497 kts 46°
2026-04-29 16:59 41.96315 -78.56609 26838 ft 497 kts 46°
2026-04-29 17:00 41.98616 -78.53187 26836 ft 498 kts 46°
2026-04-29 17:00 42.00952 -78.49706 26837 ft 498 kts 46°
2026-04-29 17:00 42.03262 -78.46261 26830 ft 498 kts 46°
2026-04-29 17:00 42.05561 -78.42831 26825 ft 499 kts 46°
2026-04-29 17:01 42.07894 -78.39342 26837 ft 499 kts 46°
2026-04-29 17:01 42.10225 -78.35855 26837 ft 500 kts 46°
2026-04-29 17:01 42.12534 -78.32393 26847 ft 499 kts 47°
2026-04-29 17:01 42.14855 -78.28910 26854 ft 500 kts 47°
2026-04-29 17:02 42.17153 -78.25457 26861 ft 499 kts 47°
2026-04-29 17:02 42.19015 -78.22656 26859 ft 500 kts 47°
2026-04-29 17:02 42.21350 -78.19144 26862 ft 501 kts 47°
2026-04-29 17:02 42.23652 -78.15673 26856 ft 501 kts 47°
2026-04-29 17:03 42.25964 -78.12188 26852 ft 500 kts 47°
2026-04-29 17:03 42.28289 -78.08679 26855 ft 500 kts 47°
2026-04-29 17:03 42.30590 -78.05198 26843 ft 500 kts 47°
2026-04-29 17:03 42.32914 -78.01679 26843 ft 500 kts 47°
2026-04-29 17:04 42.35200 -77.98211 26837 ft 499 kts 47°
2026-04-29 17:04 42.37520 -77.94691 26601 ft 500 kts 47°
2026-04-29 17:04 42.39803 -77.91220 26334 ft 496 kts 47°
2026-04-29 17:04 42.42088 -77.87745 26067 ft 494 kts 47°
2026-04-29 17:05 42.44362 -77.84280 25804 ft 491 kts 47°
2026-04-29 17:05 42.46629 -77.80821 25535 ft 489 kts 47°
2026-04-29 17:05 42.48857 -77.77419 25282 ft 489 kts 47°
2026-04-29 17:05 42.51108 -77.73978 25018 ft 489 kts 47°
2026-04-29 17:06 42.53371 -77.70515 24474 ft 490 kts 47°
2026-04-29 17:06 42.55606 -77.67092 23815 ft 489 kts 47°
2026-04-29 17:06 42.57869 -77.63622 23310 ft 490 kts 47°
2026-04-29 17:06 42.60123 -77.60160 22748 ft 488 kts 47°
2026-04-29 17:07 42.62347 -77.56742 22184 ft 483 kts 47°
2026-04-29 17:07 42.64549 -77.53350 21617 ft 479 kts 47°
2026-04-29 17:07 42.66723 -77.49999 21022 ft 475 kts 47°
2026-04-29 17:07 42.68912 -77.46619 20420 ft 472 kts 47°
2026-04-29 17:08 42.71048 -77.43323 19818 ft 469 kts 47°
2026-04-29 17:08 42.73188 -77.40013 19243 ft 465 kts 46°
2026-04-29 17:08 42.75317 -77.36718 18657 ft 462 kts 46°
2026-04-29 17:08 42.77438 -77.33430 18064 ft 458 kts 47°
2026-04-29 17:09 42.79501 -77.30232 17487 ft 454 kts 47°
2026-04-29 17:09 42.81591 -77.26992 16909 ft 450 kts 48°
2026-04-29 17:09 42.83623 -77.23835 16324 ft 446 kts 48°
2026-04-29 17:09 42.85643 -77.20688 15780 ft 442 kts 48°
2026-04-29 17:10 42.87643 -77.17570 15198 ft 438 kts 49°
2026-04-29 17:10 42.89630 -77.14467 14616 ft 435 kts 49°
2026-04-29 17:10 42.91620 -77.11360 14029 ft 431 kts 49°
2026-04-29 17:10 42.93565 -77.08319 13451 ft 428 kts 49°
2026-04-29 17:11 42.95512 -77.05268 12876 ft 424 kts 49°
2026-04-29 17:11 42.97429 -77.02264 12273 ft 421 kts 50°
2026-04-29 17:11 42.99354 -76.99246 11642 ft 418 kts 50°
2026-04-29 17:11 43.01239 -76.96283 11031 ft 415 kts 50°
2026-04-29 17:12 43.03104 -76.93351 10412 ft 412 kts 50°
2026-04-29 17:12 43.04983 -76.90396 9799 ft 402 kts 50°
2026-04-29 17:12 43.06753 -76.87608 9325 ft 374 kts 50°
2026-04-29 17:12 43.07848 -76.85880 9078 ft 357 kts 51°
2026-04-29 17:13 43.09907 -76.82622 8591 ft 326 kts 51°
2026-04-29 17:13 43.11353 -76.80331 8212 ft 308 kts 51°
2026-04-29 17:13 43.12709 -76.78181 7832 ft 293 kts 51°
2026-04-29 17:13 43.13985 -76.76112 7459 ft 284 kts 56°
2026-04-29 17:14 43.14773 -76.73679 7086 ft 277 kts 84°
2026-04-29 17:14 43.14898 -76.71078 6722 ft 275 kts 92°
2026-04-29 17:14 43.14929 -76.68443 6337 ft 276 kts 92°
2026-04-29 17:14 43.14964 -76.65814 5954 ft 278 kts 91°
2026-04-29 17:15 43.15014 -76.63174 5589 ft 279 kts 93°
2026-04-29 17:15 43.14759 -76.60587 5212 ft 276 kts 107°
2026-04-29 17:15 43.14211 -76.58076 4828 ft 275 kts 111°
2026-04-29 17:15 43.13429 -76.55720 4457 ft 267 kts 121°
2026-04-29 17:16 43.12522 -76.53587 4134 ft 252 kts 123°
2026-04-29 17:16 43.11668 -76.51610 3874 ft 236 kts 122°
2026-04-29 17:16 43.10871 -76.49721 3621 ft 222 kts 122°
2026-04-29 17:16 43.10230 -76.47826 3357 ft 219 kts 112°
2026-04-29 17:17 43.09853 -76.45829 3109 ft 221 kts 101°
2026-04-29 17:17 43.09757 -76.43718 2928 ft 220 kts 92°
2026-04-29 17:17 43.09846 -76.41677 2917 ft 208 kts 89°
2026-04-29 17:17 43.09955 -76.39765 2904 ft 196 kts 90°
2026-04-29 17:18 43.10039 -76.37964 2974 ft 186 kts 92°
2026-04-29 17:18 43.10100 -76.36224 2959 ft 184 kts 91°
2026-04-29 17:18 43.10153 -76.34521 2931 ft 174 kts 93°
2026-04-29 17:18 43.10201 -76.32866 2934 ft 168 kts 93°
2026-04-29 17:19 43.10249 -76.31296 2937 ft 164 kts 93°
2026-04-29 17:19 43.10294 -76.29741 2847 ft 165 kts 94°
2026-04-29 17:19 43.10341 -76.28183 2628 ft 163 kts 92°
2026-04-29 17:19 43.10386 -76.26643 2416 ft 163 kts 93°
2026-04-29 17:20 43.10432 -76.25092 2204 ft 162 kts 92°
2026-04-29 17:20 43.10483 -76.23549 1993 ft 162 kts 89°
2026-04-29 17:20 43.10543 -76.22030 1781 ft 161 kts 91°
2026-04-29 17:20 43.10581 -76.20487 1570 ft 162 kts 92°
2026-04-29 17:21 43.10621 -76.18957 1357 ft 162 kts 91°
2026-04-29 17:21 43.10665 -76.17413 1148 ft 162 kts 95°
2026-04-29 17:21 43.10693 -76.15814 1057 ft 167 kts 94°
2026-04-29 17:21 43.10771 -76.14290 806 ft 155 kts 93°
2026-04-29 17:22 43.10813 -76.12875 536 ft 146 kts 93°
2026-04-29 17:22 43.10850 -76.11571 427 ft 123 kts 86°
2026-04-29 17:22 43.10883 -76.10637 427 ft 73 kts 86°
2026-04-29 17:22 43.10904 -76.10135 427 ft 30 kts 90°
2026-04-29 17:23 43.10906 -76.09874 427 ft 25 kts 88°
2026-04-29 17:23 43.10923 -76.09663 427 ft 16 kts 88°
2026-04-29 17:23 43.10927 -76.09428 427 ft 29 kts 88°
2026-04-29 17:23 43.10991 -76.09268 427 ft 16 kts
2026-04-29 17:24 43.11048 -76.09371 427 ft 15 kts 265°
2026-04-29 17:24 43.11046 -76.09513 427 ft 15 kts 266°
2026-04-29 17:24 43.11036 -76.09759 427 ft 39 kts 265°
2026-04-29 17:24 43.11025 -76.10126 427 ft 37 kts 267°
2026-04-29 17:25 43.11013 -76.10465 427 ft 34 kts 266°
2026-04-29 17:25 43.11008 -76.10758 427 ft 23 kts 278°
2026-04-29 17:25 43.11134 -76.10822 427 ft 21 kts 359°
2026-04-29 17:25 43.11196 -76.10955 427 ft 13 kts 268°
2026-04-29 17:26 43.11242 -76.11005 427 ft 6 kts 359°
2026-04-29 17:26 43.11254 -76.11005 427 ft 0 kts 359°